This demonstration page uses our WeatherBlox Daily Observations layout. Learn more.

Left ArrowRight Arrow

Hourly Observations for January 20, 2020

Temp ( °F °C ) Dew Point ( °F °C ) Humidity (%) Winds ( mph kmh ) Pressure ( in mb ) Visibility ( mi km ) Precip ( " mm )
12:15 am 00:15 Cloudy 14 -10 14 -10 100 100 WNW 9 15 30.54 1034 4 6.43736 N/A
12:35 am 00:35 Cloudy 14 -10 14 -10 100 100 WNW 10 17 30.54 1034 5 8.0467 N/A
12:56 am 00:56 Cloudy 14 -10 12 -11 92 92 WNW 9 15 30.54 1034 7 11.26538 N/A
1:15 am 01:15 Cloudy 14 -10 14 -10 100 100 WNW 9 15 30.53 1034 7 11.26538 N/A
1:35 am 01:35 Cloudy 14 -10 12 -11 92 92 WNW 9 15 30.54 1034 10 16.0934 N/A
1:55 am 01:55 Cloudy 14 -10 14 -10 100 100 WNW 8 13 30.54 1034 10 16.0934 N/A
2:15 am 02:15 Cloudy 14 -10 14 -10 100 100 NW 7 11 30.54 1034 10 16.0934 N/A
2:35 am 02:35 Cloudy 14 -10 12 -11 92 92 WNW 8 13 30.54 1034 10 16.0934 N/A
2:56 am 02:56 Cloudy 14 -10 12 -11 92 92 WNW 9 15 30.54 1034 10 16.0934 N/A
3:15 am 03:15 Cloudy 14 -10 12 -11 92 92 NW 6 9 30.55 1035 10 16.0934 N/A
3:35 am 03:35 Cloudy 14 -10 12 -11 92 92 WNW 5 7 30.55 1035 10 16.0934 N/A
3:56 am 03:56 Cloudy 14 -10 14 -10 100 100 NW 7 11 30.56 1035 10 16.0934 N/A
4:15 am 04:15 Cloudy 14 -10 14 -10 100 100 NW 10 17 30.55 1035 10 16.0934 N/A
4:36 am 04:36 Cloudy 14 -10 14 -10 100 100 NW 8 13 30.56 1035 10 16.0934 N/A
4:55 am 04:55 Cloudy 14 -10 14 -10 100 100 WNW 8 13 30.56 1035 10 16.0934 N/A
5:15 am 05:15 Cloudy 14 -10 12 -11 92 92 NW 7 11 30.57 1035 10 16.0934 N/A
5:35 am 05:35 Cloudy 14 -10 12 -11 92 92 NW 7 11 30.57 1035 10 16.0934 N/A
5:56 am 05:56 Cloudy 14 -10 14 -10 100 100 NNW 5 7 30.57 1035 10 16.0934 N/A
6:15 am 06:15 Cloudy 14 -10 14 -10 100 100 WNW 6 9 30.58 1036 7 11.26538 N/A
6:36 am 06:36 Cloudy 14 -10 14 -10 100 100 NNW 5 7 30.59 1036 7 11.26538 N/A
6:55 am 06:55 Cloudy 14 -10 14 -10 100 100 NW 3 6 30.6 1036 10 16.0934 N/A
7:16 am 07:16 Cloudy 14 -10 14 -10 100 100 NW 5 7 30.6 1036 10 16.0934 N/A
7:36 am 07:36 Cloudy 14 -10 14 -10 100 100 NW 5 7 30.61 1037 10 16.0934 N/A
7:55 am 07:55 Cloudy 12 -11 12 -11 100 100 NW 5 7 30.63 1037 10 16.0934 N/A
8:15 am 08:15 Cloudy 12 -11 12 -11 100 100 NW 3 6 30.63 1037 5 8.0467 N/A
8:35 am 08:35 Cloudy 12 -11 12 -11 100 100 W 6 9 30.64 1038 2.5 4.02335 N/A
8:55 am 08:55 Cloudy 12 -11 12 -11 100 100 W 5 7 30.65 1038 1.75 2.816345 N/A
9:15 am 09:15 Partly Cloudy 14 -10 14 -10 100 100 WNW 3 6 30.65 1038 10 16.0934 N/A
9:36 am 09:36 Sunny 14 -10 12 -11 92 92 NW 3 6 30.65 1038 10 16.0934 N/A
9:56 am 09:56 Partly Cloudy 16 -9 14 -10 93 93 Calm 30.66 1038 10 16.0934 N/A
10:15 am 10:15 Sunny 18 -8 14 -10 86 86 Calm 30.66 1038 10 16.0934 N/A
10:36 am 10:36 Sunny 18 -8 14 -10 86 86 Calm 30.66 1038 10 16.0934 N/A
10:56 am 10:56 Sunny 18 -8 16 -9 93 93 Calm 30.66 1038 10 16.0934 N/A
11:16 am 11:16 Sunny 19 -7 16 -9 86 86 WNW 3 6 30.66 1038 10 16.0934 N/A
11:36 am 11:36 Sunny 19 -7 16 -9 86 86 NW 3 6 30.67 1039 10 16.0934 N/A
11:56 am 11:56 Sunny 21 -6 18 -8 86 86 NW 5 7 30.66 1038 10 16.0934 N/A
12:15 pm 12:15 Sunny 23 -5 18 -8 80 80 WNW 5 7 30.65 1038 10 16.0934 N/A
12:36 pm 12:36 Partly Cloudy 23 -5 18 -8 80 80 N 5 7 30.64 1038 10 16.0934 N/A
12:56 pm 12:56 Partly Cloudy 25 -4 19 -7 80 80 N 6 9 30.63 1037 10 16.0934 N/A
1:15 pm 13:15 Partly Cloudy 25 -4 19 -7 80 80 NNE 5 7 30.62 1037 10 16.0934 N/A
1:35 pm 13:35 Partly Cloudy 25 -4 18 -8 74 74 Calm 30.62 1037 10 16.0934 N/A
1:56 pm 13:56 Mostly Cloudy 25 -4 18 -8 74 74 NNW 5 7 30.62 1037 10 16.0934 N/A
2:15 pm 14:15 Mostly Cloudy 25 -4 18 -8 74 74 Calm 30.6 1036 10 16.0934 N/A
2:35 pm 14:35 Cloudy 27 -3 19 -7 74 74 Calm 30.6 1036 10 16.0934 N/A
2:55 pm 14:55 Cloudy 27 -3 19 -7 74 74 NNW 3 6 30.6 1036 10 16.0934 N/A
3:15 pm 15:15 Cloudy 27 -3 19 -7 74 74 N 6 9 30.59 1036 10 16.0934 N/A
3:36 pm 15:36 Cloudy 27 -3 21 -6 80 80 N 7 11 30.6 1036 10 16.0934 N/A
3:56 pm 15:56 Cloudy 27 -3 19 -7 74 74 N 6 9 30.6 1036 10 16.0934 N/A
4:16 pm 16:16 Cloudy 25 -4 21 -6 86 86 N 9 15 30.6 1036 10 16.0934 N/A
4:36 pm 16:36 Cloudy 25 -4 21 -6 86 86 NNW 9 15 30.6 1036 10 16.0934 N/A
4:55 pm 16:55 Cloudy 25 -4 21 -6 86 86 N 7 11 30.61 1037 10 16.0934 N/A
5:15 pm 17:15 Cloudy 25 -4 21 -6 86 86 N 8 13 30.61 1037 10 16.0934 N/A
5:36 pm 17:36 Cloudy 25 -4 21 -6 86 86 N 12 19 30.62 1037 10 16.0934 N/A
5:55 pm 17:55 Cloudy 25 -4 21 -6 86 86 NNW 8 13 30.62 1037 10 16.0934 N/A
6:16 pm 18:16 Cloudy 25 -4 21 -6 86 86 NNW 10 17 30.62 1037 10 16.0934 N/A
6:35 pm 18:35 Cloudy 25 -4 21 -6 86 86 N 9 15 30.62 1037 10 16.0934 N/A
6:55 pm 18:55 Cloudy 25 -4 21 -6 86 86 N 8 13 30.63 1037 10 16.0934 N/A
7:15 pm 19:15 Cloudy 25 -4 21 -6 86 86 N 10 17 30.63 1037 10 16.0934 N/A
7:35 pm 19:35 Cloudy 25 -4 21 -6 86 86 N 9 15 30.63 1037 10 16.0934 N/A
7:55 pm 19:55 Cloudy 25 -4 21 -6 86 86 N 7 11 30.63 1037 10 16.0934 N/A
8:15 pm 20:15 Cloudy 25 -4 21 -6 86 86 N 8 13 30.63 1037 10 16.0934 N/A
8:36 pm 20:36 Cloudy 25 -4 21 -6 86 86 N 8 13 30.63 1037 10 16.0934 N/A
8:55 pm 20:55 Cloudy 25 -4 23 -5 93 93 N 8 13 30.63 1037 10 16.0934 N/A
9:15 pm 21:15 Cloudy 25 -4 23 -5 93 93 N 8 13 30.63 1037 10 16.0934 N/A
9:35 pm 21:35 Cloudy 25 -4 23 -5 93 93 N 10 17 30.63 1037 10 16.0934 N/A
9:55 pm 21:55 Cloudy 25 -4 23 -5 93 93 N 9 15 30.63 1037 10 16.0934 N/A
10:16 pm 22:16 Cloudy 25 -4 23 -5 93 93 N 10 17 30.63 1037 10 16.0934 N/A
10:35 pm 22:35 Cloudy 25 -4 23 -5 93 93 N 7 11 30.63 1037 10 16.0934 N/A
10:55 pm 22:55 Cloudy 25 -4 23 -5 93 93 N 7 11 30.64 1038 10 16.0934 N/A
11:16 pm 23:16 Cloudy 25 -4 23 -5 93 93 N 9 15 30.64 1038 10 16.0934 N/A
11:35 pm 23:35 Cloudy 25 -4 23 -5 93 93 N 8 13 30.64 1038 10 16.0934 N/A
11:56 pm 23:56 Cloudy 25 -4 23 -5 93 93 N 9 15 30.64 1038 10 16.0934 N/A

Powered by AerisWeather